User: anonymous   Login
Location: Muenchen
(48.1800°N, 11.5800°E)
Time: 12:11:53
(UTC+02:00)
Language:

Cosmos 2233 Rocket - Orbit

View from above orbital plane
View from above orbital plane
View from above satellite
View from above satellite

Ground track
Ground track

The orbit data is extracted from the following two-line orbital elements,

1 22488U 93008B   15148.98875705  .00000009  00000-0 -64189-5 0  9995
2 22488 082.9426 276.6784 0025843 164.7808 333.5800 13.77664326120968
Epoch (UTC): 28 May 2015 23:43:48
Eccentricity: 0.0025843
inclination: 82.9426°
perigee height: 953 km
apogee height: 991 km
right ascension of ascending node: 276.6784°
argument of perigee: 164.7808°
revolutions per day: 13.77664326
mean anomaly at epoch: 333.5800°
orbit number at epoch: 12096

The dashed part of the orbit path shows where the satellite is in the earth's shadow,  

DLR